Home   Weather   Verden (Aller)   Past weeks

Flag for Germany Past Weather in Verden (Aller), Lower Saxony, Germany — Yesterday and Last 2 Weeks

Now
32 °F

Sunny.


Feels Like: 26 °F
Forecast: 37 / 42 °F
Wind: 7 mph from Southeast

Location: Bremen Airport

Current Time: Dec 7, 2016 at 10:02:53 am

Latest Report: Dec 7, 2016 at 9:20 am


Visibility: 10 mi

Pressure: 30.39 "Hg

Humidity: 87%

Dew Point: 28 °F

Location of Verden (Aller)Location

Past Weather in Verden (Aller) — Graph

°F

Verden (Aller) Temperature Yesterday

Maximum temperature yesterday: 37 °F (at 2:50 pm)
Minimum temperature yesterday: 18 °F (at 4:50 am)
Average temperature yesterday: 26 °F

High & Low Weather Summary for the Past Weeks

 TemperatureHumidityPressure
High57 °F (Nov 22, 12:50 pm)100% (Nov 23, 9:20 pm)30.60 "Hg (Nov 23, 9:20 pm)
Low18 °F (Nov 29, 7:20 am)57% (Dec 2, 1:20 pm)29.74 "Hg (Nov 22, 8:20 am)
Average35 °F88%30.27 "Hg
* Reported Nov 22 8:20 am — Dec 7 8:50 am, Verden (Aller), Weather by CustomWeather, © 2016

Note: Actual official high and low records may vary slightly from our data, if they occured in-between our weather recording intervals... More about our weather records

Advertising

Verden (Aller) Weather History for the Previous 24 Hours

Scroll right to see more
 ConditionsComfort  
Time TempWeatherWind HumidityBarometerVisibility
8:50 am
Wed, Dec 7
30 °FSunny.7 mph93%30.39 "Hg10 mi
8:20 am30 °FClear.8 mph93%30.39 "Hg10 mi
7:50 am28 °FPassing clouds.6 mph93%30.42 "HgN/A
7:20 am28 °FPassing clouds.6 mph93%30.42 "HgN/A
6:50 am28 °FPassing clouds.6 mph93%30.42 "HgN/A
6:20 am28 °FPassing clouds.6 mph86%30.42 "HgN/A
5:50 am28 °FPassing clouds.7 mph86%30.42 "HgN/A
5:20 am27 °FPartly cloudy.6 mph93%30.42 "HgN/A
4:50 am27 °FClear.7 mph93%30.45 "Hg10 mi
4:20 am27 °FClear.8 mph86%30.45 "Hg10 mi
3:50 am27 °FClear.6 mph86%30.45 "Hg10 mi
3:20 am27 °FClear.6 mph86%30.48 "Hg10 mi
2:50 am27 °FClear.7 mph93%30.48 "Hg10 mi
2:20 am27 °FClear.6 mph86%30.48 "Hg10 mi
1:50 am27 °FClear.5 mph93%30.48 "Hg10 mi
1:20 am27 °FClear.7 mph93%30.48 "Hg10 mi
12:50 am27 °FClear.6 mph93%30.48 "Hg10 mi
12:20 am28 °FClear.6 mph86%30.48 "Hg10 mi
11:50 pm
Tue, Dec 6
28 °FClear.6 mph86%30.48 "Hg10 mi
11:20 pm28 °FClear.5 mph93%30.48 "Hg10 mi
10:50 pm28 °FClear.8 mph93%30.48 "Hg10 mi
10:20 pm28 °FClear.5 mph93%30.51 "Hg10 mi
9:50 pm27 °FClear.5 mph93%30.51 "Hg10 mi
9:20 pm28 °FClear.3 mph93%30.51 "Hg10 mi
8:50 pm27 °FClear.3 mph93%30.51 "Hg10 mi
8:20 pm27 °FFog.5 mph100%30.51 "HgN/A
7:50 pm28 °FFog.3 mph93%30.51 "HgN/A
6:50 pm28 °FClear.5 mph86%30.51 "Hg10 mi
6:20 pm28 °FFog.3 mph93%30.48 "HgN/A
5:50 pm28 °FFog.2 mph93%30.51 "HgN/A
5:20 pm30 °FFog.3 mph93%30.51 "HgN/A
4:50 pm30 °FFog.3 mph93%30.51 "HgN/A
4:20 pm32 °FPassing clouds.2 mph93%30.51 "HgN/A
3:50 pm34 °FPassing clouds.3 mph81%30.48 "HgN/A
3:20 pm37 °FPassing clouds.No wind75%30.48 "HgN/A
2:50 pm37 °FPassing clouds.1 mph75%30.48 "HgN/A
2:20 pm36 °FPassing clouds.3 mph75%30.48 "HgN/A
1:50 pm36 °FPassing clouds.3 mph70%30.48 "HgN/A
1:20 pm36 °FPassing clouds.2 mph75%30.48 "HgN/A
12:50 pm32 °FPassing clouds.3 mph87%30.48 "HgN/A
12:20 pm32 °FPassing clouds.2 mph87%30.48 "HgN/A
11:50 am30 °FPassing clouds.2 mph93%30.48 "HgN/A
11:20 am30 °FPassing clouds.No wind86%30.48 "HgN/A
10:50 am28 °FPassing clouds.No wind86%30.48 "HgN/A
10:20 am27 °FPassing clouds.No wind93%30.45 "HgN/A
Weather by CustomWeather, © 2016

See weather overviewHow to use our weather pages